RH
16 15 13 13 12 11 10 9 8 8 8 7 7 6 6 6 5 5 5 6 7 10 13 15 24 30 38 34 30 28 30 30 35 38 33 35 38 42 43 44 40 37 37 35 39
16 16 14 13 13 11 10 10 9 8 8 7 7 6 6 5 5 4 4 5 6 8 11 15 23 29 33 32 31 32 25 28 27 30 33 35 39 42 39 43 41 36 37 35 41
16 16 14 14 13 12 11 10 10 9 8 7 6 6 6 5 5 4 4 4 6 7 10 16 23 30 26 27 26 27 27 26 28 30 31 33 36 30 33 34 38 39 37 38 39
16 16 14 14 14 13 12 10 10 9 8 7 6 5 6 5 5 3 3 4 5 6 9 17 24 24 23 25 21 27 31 28 28 29 32 33 29 27 29 35 35 38 35 38 39
18 16 15 14 15 14 12 10 10 8 6 5 4 4 6 6 5 5 3 4 4 5 9 19 23 21 22 22 24 33 30 29 28 30 31 29 28 27 32 36 38 39 40 39 42
19 16 15 14 15 14 12 12 10 6 4 3 3 3 4 5 4 5 4 4 4 5 10 22 19 19 22 21 27 29 28 28 30 30 32 31 30 22 31 38 39 40 44 45 46
19 17 16 14 15 15 13 13 10 6 5 5 2 3 5 5 6 6 4 4 5 6 12 20 16 17 18 22 26 29 30 32 32 35 32 33 31 29 28 36 42 43 46 48 49
20 16 16 14 15 15 13 13 11 8 7 8 6 4 7 6 8 5 5 5 5 8 17 18 15 15 17 20 27 32 34 36 34 34 35 47 35 32 29 28 35 41 43 44 46
21 17 16 15 15 15 14 14 11 10 9 10 10 10 11 9 8 7 6 5 7 9 14 15 16 17 18 19 24 30 36 35 32 35 36 47 37 35 33 29 29 35 39 41 41
20 18 15 15 15 16 15 14 11 10 10 12 11 11 9 10 8 7 7 7 8 10 11 16 15 16 16 20 25 28 31 34 34 32 32 41 43 35 37 38 29 30 35 36 36
20 18 16 15 16 16 16 15 15 15 13 13 15 12 10 10 8 7 6 8 9 9 10 13 15 15 15 17 20 19 24 31 33 36 32 41 46 40 36 38 37 31 30 34 33
20 18 16 14 16 18 18 18 17 15 12 13 14 13 10 10 9 9 8 9 9 9 10 10 12 14 15 16 16 17 20 24 30 31 32 39 44 43 40 34 39 37 33 33 34
19 18 16 15 16 19 19 16 17 13 14 12 12 12 9 8 8 7 8 10 8 10 9 8 10 14 14 15 17 19 20 21 25 32 32 37 43 45 43 40 34 40 38 35 36
18 18 16 16 15 19 20 17 17 14 14 12 10 10 10 7 9 8 8 8 9 10 12 16 16 16 17 19 20 23 20 22 24 35 34 31 38 40 37 40 34 35 37 36 37
17 17 16 16 16 19 21 18 17 14 16 11 12 11 9 8 8 9 10 10 12 14 15 16 16 18 19 21 21 26 23 25 28 32 43 40 39 36 36 32 33 33 37 37 38
17 16 16 17 17 18 23 22 21 16 15 12 11 11 10 10 9 10 11 13 16 16 16 19 17 20 22 19 20 22 24 26 29 34 35 32 36 27 31 27 31 33 37 40 40
17 15 16 17 18 21 25 26 26 20 13 12 9 11 11 10 12 12 13 15 14 16 17 17 18 20 20 21 23 23 25 28 30 31 27 30 27 24 28 29 30 33 39 38 42
16 15 15 18 18 19 24 28 34 19 16 17 11 11 12 12 11 15 15 15 15 16 19 21 21 19 21 22 22 19 22 20 26 21 20 29 20 24 21 26 30 35 42 43 44
17 15 15 17 19 21 25 31 27 22 25 22 13 12 14 13 12 15 15 15 14 13 19 19 20 21 21 23 24 27 23 22 26 24 22 20 27 20 20 21 23 27 31 40 44
17 15 16 19 21 23 26 28 28 25 25 24 20 13 15 14 13 13 15 15 16 13 14 20 22 19 19 19 23 28 28 27 25 28 29 23 23 22 23 21 22 22 29 40 43
17 16 19 22 23 25 24 23 26 25 29 26 26 22 15 15 14 14 16 16 14 15 14 17 18 26 18 19 22 26 28 30 28 28 27 26 23 26 20 19 22 22 29 36 43
17 17 19 24 24 25 26 25 26 26 31 27 27 24 18 17 15 17 17 17 14 15 15 13 16 22 22 22 21 27 25 29 30 38 32 28 25 26 20 21 22 23 25 31 35
19 18 21 27 27 31 32 28 25 28 30 30 29 28 23 21 20 17 18 19 16 16 18 18 16 21 25 24 22 26 26 29 30 30 34 31 28 32 25 24 25 27 28 30 31
21 23 26 30 33 33 33 30 27 28 29 32 29 31 29 27 26 25 26 22 21 20 21 21 21 19 19 24 23 26 28 28 29 31 33 33 34 32 30 27 26 28 30 33 34
26 27 32 32 34 34 33 32 29 28 30 29 32 33 33 34 30 28 29 28 23 22 23 23 24 24 24 23 25 27 31 29 30 30 32 30 35 27 28 23 21 21 26 32 36
31 28 28 33 35 36 36 35 30 29 31 31 30 34 36 35 38 33 31 31 30 28 28 28 29 29 26 25 25 27 28 31 29 31 34 35 34 26 22 19 17 15 21 25 30
26 28 30 29 33 36 40 39 36 33 30 33 32 31 33 38 37 36 35 35 34 31 31 32 33 32 31 31 29 31 32 30 32 34 35 35 35 27 20 19 18 18 18 21 28